Regional Weather Roundup
Issued by NWS

Home | Current Version | Previous Version | Text Only | Print | Product List | Glossary On
Versions: 1 2 3 4 5 6 7 8 9 10 11 12 13 14 15 16 17 18 19 20 21 22 23 24 25 26 27 28 29 30 31 32 33 34 35 36 37 38 39 40 41 42 43 44 45 46 47 48 49 50
000
ASUS44 KLUB 201901
RWRTX
WEST TEXAS WEATHER ROUNDUP
NATIONAL WEATHER SERVICE LUBBOCK TX
200 PM CDT SUN APR 20 2014

NOTE: "FAIR" INDICATES FEW OR NO CLOUDS BELOW 12,000 FEET WITH NO
SIGNIFICANT WEATHER AND/OR OBSTRUCTIONS TO VISIBILITY.

TXZ004-006>008-010-012-014-016-OKZ002-202000-
TEXAS PANHANDLE/OKLAHOMA PANHANDLE

CITY           SKY/WX    TMP DP  RH WIND       PRES   REMARKS
AMARILLO       MOSUNNY   72  46  39 S18G25    30.00F
BORGER         MOSUNNY   77  48  35 S16G25    29.97F
DALHART        PTSUNNY   68  44  42 SW9       30.00F
GUYMON         MOSUNNY   78  43  28 S16G24    29.94F
$$

TXZ026-029-035-045-048-202000-
SOUTHERN PANHANDLE/SOUTH PLAINS/ROLLING PLAINS

CITY           SKY/WX    TMP DP  RH WIND       PRES   REMARKS
CHILDRESS      MOSUNNY   76  54  46 S6G18     30.01F
SEMINOLE       PTSUNNY   69  55  59 W8        30.08F
LUBBOCK        PTSUNNY   71  54  54 SW16      30.03F
$$

TXZ052-054-060>062-072-078-127-140-154-169-202000-
PERMIAN BASIN/CONCHO VALLEY/BIG COUNTRY/EDWARDS PLATEAU

CITY           SKY/WX    TMP DP  RH WIND       PRES   REMARKS
ABILENE        LGT RAIN  63  61  93 SW7       30.09S FOG
BROWNWOOD      CLOUDY    72  59  64 S10       30.08F
JUNCTION       CLOUDY    71  60  68 S13       30.08F
MIDLAND        MOSUNNY   71  58  63 S13       30.07F
ODESSA         MOSUNNY   71  57  61 S8        30.07F
SAN ANGELO     LGT RAIN  67  63  87 SW16      30.07F
WINK           SUNNY     76  54  46 CALM      30.05F
$$

TXZ055-058-074-075-080-082-202000-
FAR WEST/SOUTHWEST MOUNTAINS/TRANS PECOS

CITY           SKY/WX    TMP DP  RH WIND       PRES   REMARKS
DRYDEN           N/A     78  63  59 VRB7      30.05F
EL PASO        MOSUNNY   72  42  34 W8        30.12F
FORT STOCKTON  SUNNY     74  51  44 NW7       30.06F
GUADALUPE PASS SUNNY     66  48  52 W21       30.18F
MARFA          MOSUNNY   73  41  31 SW13      30.16F
PECOS          SUNNY     73  57  57 CALM      30.05F
PRESIDIO       FAIR      81  49  33 S6        30.05F
$$

TXZ014-016-019-021>030-083-202000
TEXAS TECH WEST TEXAS MESONET/TEXAS PANHANDLE/NORTHERN SOUTH PLAINS

CITY           SKY/WX    TMP DP  RH WIND       PRES   REMARKS
ABERNATHY 5ENE   N/A     72  53  50 SW18      30.04F
AMARILLO 9NNE    N/A     73  46  39 S17       29.98F
AMARILLO 7SSE    N/A     74  47  37 S18       30.00F
AMHERST 1NE      N/A     74  42  31 SW21      30.02F
BOOTLEG 11WNW    N/A     69  43  39 SW17      30.04F
CANADIAN 6E      N/A     74  54  48 SE13      29.99F
CAPROCK CYN SP   N/A     73  52  47 SW18      30.01F
CHILDRESS 2NNE   N/A     76  54  46 S12       30.01F
CLARENDON 2WSW   N/A     70  53  53 S14       30.01F
CLAUDE 12SW      N/A     72  50  45 S13       30.00F
DIMMITT 2NE      N/A     72  44  36 S20       30.01F
FLOYDADA 2NNE    N/A     70  51  50 SW20      30.03F
FRIONA 2NE       N/A     71  43  36 SW22      30.02F
GOODLETT 3W      N/A     77  55  46 SE8       30.01F
HART 3N          N/A     72  44  36 SW21G31   30.01F
HEREFORD 2NW     N/A     74  41  30 SW22      29.99F
MCLEAN 1E        N/A     68  55  63 S12       30.02F
MEMPHIS 1NE      N/A     75  54  47 S12       30.00F
MULESHOE 2SSW    N/A     73  42  33 W17       30.02F
OLTON 6S         N/A     69  49  48 SW15      30.01F
PALO DURO SP     N/A     74  48  39 S10       30.01F
PAMPA 2E         N/A     70  52  52 S16       30.02F
PLAINVIEW 1S     N/A     70  54  55 S15       30.02F
SILVERTON 7ESE   N/A     73  51  46 SW17      30.03F
TULIA 2ENE       N/A     73  50  44 S21G32    30.01F
TURKEY 2WSW      N/A     73  55  53 S15       30.00F
UMBARGER 3NNE    N/A     71  46  40 SW20      30.01F
$$

TXZ033>036-039>041-045>048-202000
TEXAS TECH WEST TEXAS MESONET/SOUTH PLAINS

CITY           SKY/WX    TMP DP  RH WIND       PRES   REMARKS
AIKEN 3WSW       N/A     72  53  51 SW17      30.04F
ANDREWS 2NE      N/A     71  56  58 S12       30.07F
ANTON 6SSW       N/A     73  51  46 SW20      30.02F
BROWNFIELD 2S    N/A     68  57  68 S14       30.06F
DENVR CTY 7WNW   N/A     73  44  35 SW14      30.06F
GAIL 2ESE        N/A     70  58  66 S13       30.06F
LAMESA 2SE       N/A     69  59  68 S14       30.07F
LEVELLAND 4S     N/A     72  49  44 SW13      30.03F
LUBBOCK 3WNW     N/A     70  55  60 S14       30.05F
MORTON 1ENE      N/A     74  40  29 SW18      30.03F
ODONNELL 1N      N/A     71  54  54 SW16      30.07F
PLAINS 3N        N/A     73  45  37 SW17      30.06F
RALLS 1SE        N/A     71  55  55 SW18      30.05F
REESE CENTER     N/A     70  55  57 S17       30.04F
SEAGRAVES 1SW    N/A     69  58  66 S13       30.06F
SEMINOLE 2NNE    N/A     69  55  60 SW6       30.07F
SLATON 2NE       N/A     72  53  51 SW18      30.04F
SNYDER 3E        N/A     66  60  81 S13       30.08F
SUNDOWN 8SW      N/A     74  45  35 SW17      30.04F
TAHOKA 3NNE      N/A     70  53  55 SW16      30.05F
WOLFFORTH 6SSW   N/A     68  58  70 S17       30.05F
$$

TXZ031-032-036>038-042>044-202000-
TEXAS TECH WEST TEXAS MESONET/ROLLING PLAINS

CITY           SKY/WX    TMP DP  RH WIND       PRES   REMARKS
ASPERMONT 3NE  LGT RAIN  64  61  90 SE8       30.05F
FLUVANNA 3WNW    N/A     67  56  68 S17       30.06F
GRAHAM 5SSW      N/A     69  56  63 S14       30.05F
GUTHRIE 10WSW    N/A     75  55  49 S14       30.02S
HASKELL 1NW      N/A     64  62  94 S6        30.04F
JAYTON 1SSE      N/A     71  57  61 S12       30.04F
KNOX CITY 3NW    N/A     65  59  79 S5        30.06R
LK A HENRY 1NW   N/A     70  56  62 SW15      30.05F
NORTHFIELD 1S    N/A     74  55  50 S9        30.01F
ODELL 4ENE       N/A     71  59  65 SE6       30.05F
PADUCAH 10SW     N/A     79  54  42 S12       30.01F
POST 1NE         N/A     72  54  54 SW13      30.05F
RRING SPRGS 3N   N/A     74  56  53 S15       30.03F
SEYMOUR 3NW      N/A     69  59  70 W16       30.04R
SPUR 1W          N/A     72  54  53 SW13      30.03F
WEINERT 2NNE     N/A     63  58  83 S9        30.04F
WHITE RVR 6NE    N/A     72  55  54 S18       30.03F
$$

TXZ052-054-060>062-072-078-127-140-154-169-202000-
TEXAS TECH WEST TEXAS MESONET/PERMIAN BASIN/
CONCHO VALLEY/BIG COUNTRY/EDWARDS PLATEAU

CITY           SKY/WX    TMP DP  RH WIND       PRES   REMARKS
COYANOSA 2N      N/A     75  56  50 W6        30.06F
JUNCTION 1SSW    N/A     72  61  68 S16       30.09F
MERTZON 3NNE     N/A     67  62  84 S12       30.09F
SAN ANGELO 7NW   N/A     69  62  77 SW12      30.08F
STRLNG CT 4WSW   N/A     68  60  74 S10       30.08F
ST LAWRNCE 5SW   N/A     66  61  82 S15       30.09F
SWEETWATR 11SW   N/A     64  60  88 S8        30.09F
WALL 1E          N/A     69  61  74 S13       30.08F
$$

TXZ055-058-074-075-080-082-202000-
TEXAS TECH WEST TEXAS MESONET/FAR WEST/SOUTHWEST MOUNTAINS/TRANS PECOS

CITY           SKY/WX    TMP DP  RH WIND       PRES   REMARKS
PRSMN GAP BBNP   N/A     79  55  43 SW6       30.06F
$$



USA.gov is the U.S. government's official web portal to all federal, state and local government web resources and services.